Simultaneous Nadir Overpasses (SNOs) Predictions

Prediction of SNOs near US between AQUA and NPP Satellite Orbit:

Table of predicted SNOs near US for the next 10.0 days since TLE Epoch: 3/22/2019
Index Date (AQUA) Time (AQUA) AQUA Lat,Lon Date (NPP) Time (NPP) NPP Lat,Lon Distance(km) Time Diff (sec)
1 03/24/2019 19:06:48 49.95, -92.55 03/24/2019 19:00:56 49.64, -94.38 135.75 352
2 03/24/2019 20:45:42 50.00,-117.29 03/24/2019 20:42:25 49.59,-119.73 180.91 197
3 03/30/2019 07:19:15 49.91, -76.02 03/30/2019 07:19:51 50.32, -78.15 158.73 36
4 03/30/2019 08:58:08 49.92,-100.73 03/30/2019 09:01:18 50.49,-103.45 203.19 190
5 04/01/2019 18:17:25 49.95, -80.21 04/01/2019 18:10:06 49.70, -81.69 110.42 439
6 04/01/2019 19:56:18 49.94,-104.92 04/01/2019 19:51:34 49.59,-107.02 155.66 284




NCC Satellite Simultaneous Nadir Overpasses (SNOs) Prediction Service
